Regional Weather Roundup
Issued by NWS Charleston, SC

Current Version | Previous Version | Graphics & Text | Print | Product List | Glossary On
Versions: 1 2 3 4 5 6 7 8 9 10 11 12 13 14 15 16 17 18 19 20 21 22 23 24 25 26 27 28 29 30 31 32 33 34 35 36 37 38 39 40 41 42 43 44 45 46 47 48 49 50
000 ASUS42 KCHS 081412 RWRCHS REGIONAL WEATHER ROUNDUP NATIONAL WEATHER SERVICE CHARLESTON SC 900 AM EST THU DEC 08 2016 NOTE: "FAIR" INDICATES FEW OR NO CLOUDS BELOW 12,000 FEET WITH NO SIGNIFICANT WEATHER AND/OR OBSTRUCTIONS TO VISIBILITY. NOT ALL STATIONS ARE QUALITY CONTROLLED. USE DATA WITH CAUTION... ESPECIALLY DEWPOINT OBSERVATIONS. SCZ027-030-031-034>040-042>050-081500- ...SOUTHEAST SOUTH CAROLINA... CITY SKY/WX TMP DP RH WIND PRES REMARKS N CHARLESTON PTSUNNY 56 52 86 W7 30.11R WATERFRONT PRK N/A 55 54 96 VRB3 30.09R MOUNT PLEASANT NOT AVBL JOHNS ISLAND CLOUDY 55 54 94 W8 30.11R PINOPOLIS N/A 54 54 100 W9 30.02R MONCKS CORNER CLOUDY 54 52 94 CALM 30.11R FOG SUMMERVILLE CLOUDY 54 54 100 W5 30.13R BEAUFORT MCAS MOSUNNY 53 48 83 NW10 30.14R BEAUFORT ARPT FAIR 54 48 82 W12 30.13R HAZE HILTON HEAD IS NOT AVBL WALTERBORO CLOUDY 55 N/A N/A NW7 30.14R ALLENDALE FAIR 50 46 87 CALM 30.13R ...SOUTHERN MIDLANDS AND PEE DEE... CITY SKY/WX TMP DP RH WIND PRES REMARKS GEORGETOWN CLOUDY 54 52 94 CALM 30.11R KINGSTREE CLOUDY 54 50 87 W7 30.10R ORANGEBURG MOSUNNY 54 50 86 W7 30.11R BARNWELL NOT AVBL AIKEN FAIR 46 43 87 W8 30.15R MANNING CLOUDY 54 50 87 W5 30.10S COLUMBIA MOSUNNY 56 48 74 W9 30.10R SUMTER PTSUNNY 54 50 85 W8 30.08R FOG FLORENCE CLOUDY 53 51 93 W9 30.10R MYRTLE BEACH CLOUDY 54 50 87 NW8 30.11R N MYRTLE BEACH CLOUDY 54 52 93 NW9 30.09R $$ GAZ063-065-086>088-099>101-113>116-118-119-134>141-150-081500- ...SOUTHEAST GEORGIA... CITY SKY/WX TMP DP RH WIND PRES REMARKS SAVANNAH ARPT MOSUNNY 52 46 80 W10 30.16R HUNTER AAF SUNNY 53 51 94 W12 30.13R FORT STEWART SUNNY 52 44 74 NW10 30.14R STATESBORO SUNNY 51 46 83 W7 30.16R SYLVANIA SUNNY N/A N/A N/A NW9 30.16R CLAXTON FAIR 50 46 84 W10 30.17S ...CSRA...CENTRAL AND FAR SOUTHEAST GEORGIA... CITY SKY/WX TMP DP RH WIND PRES REMARKS THOMSON CLOUDY 49 46 90 W6 30.18S AUGUSTA-BUSH SUNNY 50 43 77 W8 30.13R AUGUSTA-DANIEL SUNNY 49 41 74 W8 30.13R SWAINSBORO FAIR 46 43 87 NW10G18 30.18R VIDALIA SUNNY 50 45 81 NW13 30.18R EASTMAN FAIR 50 33 51 NW8 30.23R HAZLEHURST PTSUNNY 53 48 83 N7 30.17R ALMA CLOUDY 53 47 79 NW13 30.17R WAYCROSS CLOUDY 54 52 94 NW6 30.18R JESUP CLOUDY 54 52 94 N7 30.17R BAXLEY CLOUDY 54 52 94 NW8 30.17R BRUNSWICK SUNNY 52 52 100 W5 30.18R SAINT SIMONS SUNNY 54 48 80 NW6 30.16R $$ SCZ027-028-034-036>038-045-046-048>050-GAZ119-141-081500- ...LAKE AND SUPPLEMENTAL COASTAL OBSERVATIONS... STATION/POSITION TIME TEMP WIND PRES WAVE SWELL AIR SEA DIR/SP/G HT/PER HT/PER/DIR (UTC) (F) (DEG/KT/KT) (MB) (FT/S) (FT/S/D) WINYAH BAY 1245 51 310/ 1 1018.0 LAKE MURRAY NOT AVBL ACE BASIN NERRS 1245 53 260/ 3 1019.0 FORT PULASKI 1348 53 62 310/ 15/ 18 1020.6R SAPELO ISLAND 1300 52 310/ 9 1020.0 $$ ANZ835-935-AMZ111-154-330-350-352-354-370-450-454-472-081500- ...C-MAN AND BUOY OBSERVATIONS... STATION/POSITION TIME TEMP WIND PRES WAVE SWELL AIR SEA DIR/SP/G HT/PER HT/PER/DIR (UTC) (F) (DEG/KT/KT) (MB) (FT/S) (FT/S/D) BUOY 41004 1350 66 74 270/ 12/ 16 1018.1R 2/ 6 2/160/ 6 BUOY 41008 1350 56 64 300/ 17/ 21 1020.2R 2/ 3 2/290/10 FOLLY BEACH CMAN 1300 55 250/ 3/ 4 1019.3R CAPERS NEARSHORE 1308 57 60 300/ 6/ 8 1018.7R FRIPP NEARSHORE 1308 56 61 310/ 16/ 19 1019.6R STATION/POSITION TIME TEMP WIND PRES WAVE SWELL AIR SEA DIR/SP/G HT/PER HT/PER/DIR (UTC) (F) (DEG/KT/KT) (MB) (FT/S) (FT/S/D) 5E ST. MARYS GA 1400 65 N/A 2/10 FRYING PAN BUOY 1350 63 73 280/ 10/ 14 1018.1R 3/ 7 2/170/ 7 BUOY 41025 1350 59 78 280/ 4/ 6 1017.4F 4/ 9 3/ 70/ 9 CAPE LOOKOUT NC 1300 58 130/ 2/ 2 1017.0S BUOY 41002 1350 72 74 250/ 4/ 6 1018.3R 5/10 5/10 BUOY 41010 NOT AVBL ST AUGUSTINE FL 1400 55 66 320/ 9/ 10 1022.3R $$

USA.gov is the U.S. government's official web portal to all federal, state and local government web resources and services.